"Sample Date","Sample Time","Sample Value","Units","Flow Rate","Sample Interval","Number Channels","Micron Size 0","Counts/Channel 0","Micron Size 1","Counts/Channel 1","Micron Size 2","Counts/Channel 2","Micron Size 3","Counts/Channel 3","Micron Size 4","Counts/Channel 4","Micron Size 5","Counts/Channel 5","Micron Size 6","Counts/Channel 6","Micron Size 7","Counts/Channel 7","Micron Size 8","Counts/Channel 8","Micron Size 9","Counts/Channel 9","Micron Size 10","Counts/Channel 10","Micron Size 11","Counts/Channel 11","Micron Size 12","Counts/Channel 12","Micron Size 13","Counts/Channel 13","Micron Size 14","Counts/Channel 14","Micron Size 15","Counts/Channel 15","Micron Size 16","Counts/Channel 16","Micron Size 17","Counts/Channel 17","Micron Size 18","Counts/Channel 18","Micron Size 19","Counts/Channel 19","Micron Size 20","Counts/Channel 20","Micron Size 21","Counts/Channel 21","Micron Size 22","Counts/Channel 22","Micron Size 23","Counts/Channel 23","Micron Size 24","Counts/Channel 24","Micron Size 25","Counts/Channel 25","Micron Size 26","Counts/Channel 26","Micron Size 27","Counts/Channel 27","Micron Size 28","Counts/Channel 28","Micron Size 29","Counts/Channel 29","Micron Size 30","Counts/Channel 30","Micron Size 31","Counts/Channel 31"
"04/02/08","13:00:01",20197.000,"cc",28368.793,6.00,6,0.100,18371.000,0.200,779.000,0.300,384.000,0.500,498.000,1.000,165.000,5.000,0
"04/02/08","13:00:07",20350.000,"cc",28262.457,6.00,6,0.100,18420.000,0.200,840.000,0.300,432.000,0.500,482.000,1.000,176.000,5.000,0
"04/02/08","13:00:13",19989.000,"cc",28333.619,6.00,6,0.100,18138.000,0.200,810.000,0.300,398.000,0.500,472.000,1.000,171.000,5.000,0
"04/02/08","13:00:19",20001.000,"cc",28320.596,6.00,6,0.100,18190.000,0.200,757.000,0.300,403.000,0.500,488.000,1.000,163.000,5.000,0
"04/02/08","13:00:25",20063.000,"cc",28335.789,6.00,6,0.100,18094.000,0.200,804.000,0.300,449.000,0.500,530.000,1.000,186.000,5.000,0
"04/02/08","13:00:31",20110.000,"cc",28311.568,6.00,6,0.100,18213.000,0.200,788.000,0.300,420.000,0.500,504.000,1.000,185.000,5.000,0
"04/02/08","13:00:37",19926.000,"cc",28382.861,6.00,6,0.100,18009.000,0.200,810.000,0.300,443.000,0.500,471.000,1.000,193.000,5.000,0
"04/02/08","13:00:43",19976.000,"cc",28321.588,6.00,6,0.100,18027.000,0.200,870.000,0.300,436.000,0.500,462.000,1.000,181.000,5.000,0
"04/02/08","13:00:49",20200.000,"cc",28291.168,6.00,6,0.100,18187.000,0.200,854.000,0.300,460.000,0.500,510.000,1.000,189.000,5.000,0
"04/02/08","13:00:55",20211.000,"cc",28306.094,6.00,6,0.100,18276.000,0.200,817.000,0.300,426.000,0.500,491.000,1.000,201.000,5.000,0
"04/02/08","13:01:01",20118.000,"cc",28300.898,6.00,6,0.100,18108.000,0.200,825.000,0.300,475.000,0.500,515.000,1.000,195.000,5.000,0
"04/02/08","13:01:07",20084.000,"cc",28333.588,6.00,6,0.100,18162.000,0.200,815.000,0.300,434.000,0.500,501.000,1.000,172.000,5.000,0
"04/02/08","13:01:13",19990.000,"cc",28275.078,6.00,6,0.100,18253.000,0.200,775.000,0.300,388.000,0.500,401.000,1.000,173.000,5.000,0
"04/02/08","13:01:19",19339.000,"cc",28304.703,6.00,6,0.100,17765.000,0.200,717.000,0.300,345.000,0.500,375.000,1.000,137.000,5.000,0
"04/02/08","13:01:25",19355.000,"cc",28348.715,6.00,6,0.100,17737.000,0.200,739.000,0.300,341.000,0.500,398.000,1.000,140.000,5.000,0
"04/02/08","13:01:31",19171.000,"cc",28259.522,6.00,6,0.100,17599.000,0.200,703.000,0.300,321.000,0.500,383.000,1.000,165.000,5.000,0
"04/02/08","13:01:37",18989.000,"cc",28358.951,6.00,6,0.100,17371.000,0.200,725.000,0.300,327.000,0.500,434.000,1.000,132.000,5.000,0
"04/02/08","13:01:43",19161.000,"cc",28373.824,6.00,6,0.100,17305.000,0.200,802.000,0.300,385.000,0.500,493.000,1.000,176.000,5.000,0
"04/02/08","13:01:49",19056.000,"cc",28324.578,6.00,6,0.100,17266.000,0.200,763.000,0.300,399.000,0.500,459.000,1.000,169.000,5.000,0
"04/02/08","13:01:55",19015.000,"cc",28351.279,6.00,6,0.100,17146.000,0.200,815.000,0.300,423.000,0.500,465.000,1.000,166.000,5.000,0
"04/02/08","13:02:01",19214.000,"cc",28313.611,6.00,6,0.100,17259.000,0.200,763.000,0.300,460.000,0.500,515.000,1.000,217.000,5.000,0
"04/02/08","13:02:07",19689.000,"cc",28311.211,6.00,6,0.100,17695.000,0.200,885.000,0.300,442.000,0.500,473.000,1.000,194.000,5.000,0
"04/02/08","13:02:13",19058.000,"cc",28211.941,6.00,6,0.100,17350.000,0.200,730.000,0.300,369.000,0.500,461.000,1.000,148.000,5.000,0
"04/02/08","13:02:19",19296.000,"cc",28339.498,6.00,6,0.100,17408.000,0.200,784.000,0.300,448.000,0.500,480.000,1.000,176.000,5.000,0
"04/02/08","13:02:25",19014.000,"cc",28314.764,6.00,6,0.100,17132.000,0.200,794.000,0.300,410.000,0.500,507.000,1.000,171.000,5.000,0
"04/02/08","13:02:31",19211.000,"cc",28345.398,6.00,6,0.100,17238.000,0.200,818.000,0.300,446.000,0.500,511.000,1.000,198.000,5.000,0
"04/02/08","13:02:37",19182.000,"cc",28325.932,6.00,6,0.100,17347.000,0.200,763.000,0.300,404.000,0.500,487.000,1.000,181.000,5.000,0
"04/02/08","13:02:43",19393.000,"cc",28406.383,6.00,6,0.100,17566.000,0.200,764.000,0.300,411.000,0.500,474.000,1.000,178.000,5.000,0
"04/02/08","13:02:49",19113.000,"cc",28255.166,6.00,6,0.100,17390.000,0.200,758.000,0.300,349.000,0.500,449.000,1.000,167.000,5.000,0
"04/02/08","13:02:55",19364.000,"cc",28316.607,6.00,6,0.100,17456.000,0.200,809.000,0.300,424.000,0.500,503.000,1.000,172.000,5.000,0
"04/02/08","13:03:01",19309.000,"cc",28334.273,6.00,6,0.100,17420.000,0.200,767.000,0.300,392.000,0.500,547.000,1.000,183.000,5.000,0
"04/02/08","13:03:07",19636.000,"cc",28279.959,6.00,6,0.100,17594.000,0.200,857.000,0.300,475.000,0.500,526.000,1.000,184.000,5.000,0
"04/02/08","13:03:13",19877.000,"cc",28231.481,6.00,6,0.100,17747.000,0.200,862.000,0.300,480.000,0.500,561.000,1.000,227.000,5.000,0
"04/02/08","13:03:19",19503.000,"cc",28339.096,6.00,6,0.100,17628.000,0.200,765.000,0.300,437.000,0.500,510.000,1.000,163.000,5.000,0
"04/02/08","13:03:25",19472.000,"cc",28320.328,6.00,6,0.100,17611.000,0.200,822.000,0.300,406.000,0.500,480.000,1.000,153.000,5.000,0
"04/02/08","13:03:31",19300.000,"cc",28322.852,6.00,6,0.100,17487.000,0.200,769.000,0.300,381.000,0.500,490.000,1.000,173.000,5.000,0
"04/02/08","13:03:37",19717.000,"cc",28332.904,6.00,6,0.100,17901.000,0.200,783.000,0.300,382.000,0.500,481.000,1.000,170.000,5.000,0
"04/02/08","13:03:43",19804.000,"cc",28406.619,6.00,6,0.100,17884.000,0.200,843.000,0.300,436.000,0.500,455.000,1.000,186.000,5.000,0
"04/02/08","13:03:49",19454.000,"cc",28270.815,6.00,6,0.100,17751.000,0.200,734.000,0.300,368.000,0.500,448.000,1.000,153.000,5.000,0
"04/02/08","13:03:55",19334.000,"cc",28270.994,6.00,6,0.100,17666.000,0.200,758.000,0.300,348.000,0.500,400.000,1.000,162.000,5.000,0
"04/02/08","13:04:01",19586.000,"cc",28362.377,6.00,6,0.100,17793.000,0.200,757.000,0.300,415.000,0.500,462.000,1.000,159.000,5.000,0
"04/02/08","13:04:07",19433.000,"cc",28295.426,6.00,6,0.100,17583.000,0.200,788.000,0.300,400.000,0.500,472.000,1.000,190.000,5.000,0
"04/02/08","13:04:13",19478.000,"cc",28258.188,6.00,6,0.100,17741.000,0.200,770.000,0.300,377.000,0.500,440.000,1.000,150.000,5.000,0
"04/02/08","13:04:19",20221.000,"cc",28317.783,6.00,6,0.100,18322.000,0.200,794.000,0.300,421.000,0.500,501.000,1.000,183.000,5.000,0
"04/02/08","13:04:25",20277.000,"cc",28398.231,6.00,6,0.100,18314.000,0.200,799.000,0.300,447.000,0.500,526.000,1.000,191.000,5.000,0
"04/02/08","13:04:31",20431.000,"cc",28243.582,6.00,6,0.100,18425.000,0.200,839.000,0.300,471.000,0.500,500.000,1.000,196.000,5.000,0
"04/02/08","13:04:37",20220.000,"cc",28334.654,6.00,6,0.100,18308.000,0.200,788.000,0.300,429.000,0.500,497.000,1.000,198.000,5.000,0
"04/02/08","13:04:43",20015.000,"cc",28351.734,6.00,6,0.100,18053.000,0.200,843.000,0.300,408.000,0.500,532.000,1.000,179.000,5.000,0
"04/02/08","13:04:49",19583.000,"cc",28353.008,6.00,6,0.100,17676.000,0.200,845.000,0.300,427.000,0.500,467.000,1.000,168.000,5.000,0
"04/02/08","13:04:55",19764.000,"cc",28312.231,6.00,6,0.100,18012.000,0.200,778.000,0.300,369.000,0.500,443.000,1.000,162.000,5.000,0
"04/02/08","13:05:01",19895.000,"cc",28314.764,6.00,6,0.100,18043.000,0.200,824.000,0.300,403.000,0.500,453.000,1.000,172.000,5.000,0
"04/02/08","13:05:07",19629.000,"cc",28289.531,6.00,6,0.100,17719.000,0.200,814.000,0.300,418.000,0.500,490.000,1.000,188.000,5.000,0
"04/02/08","13:05:13",20013.000,"cc",28295.006,6.00,6,0.100,17994.000,0.200,910.000,0.300,423.000,0.500,519.000,1.000,167.000,5.000,0
"04/02/08","13:05:19",20068.000,"cc",28337.193,6.00,6,0.100,17983.000,0.200,889.000,0.300,446.000,0.500,549.000,1.000,201.000,5.000,0
"04/02/08","13:05:25",19839.000,"cc",28353.531,6.00,6,0.100,17957.000,0.200,782.000,0.300,434.000,0.500,477.000,1.000,189.000,5.000,0
"04/02/08","13:05:31",20093.000,"cc",28267.318,6.00,6,0.100,17924.000,0.200,907.000,0.300,466.000,0.500,590.000,1.000,206.000,5.000,0
"04/02/08","13:05:37",20133.000,"cc",28298.154,6.00,6,0.100,18173.000,0.200,852.000,0.300,438.000,0.500,478.000,1.000,192.000,5.000,0
"04/02/08","13:05:43",20347.000,"cc",28319.883,6.00,6,0.100,18372.000,0.200,848.000,0.300,420.000,0.500,508.000,1.000,199.000,5.000,0
"04/02/08","13:05:49",20290.000,"cc",28304.461,6.00,6,0.100,18178.000,0.200,896.000,0.300,488.000,0.500,550.000,1.000,178.000,5.000,0
"04/02/08","13:05:55",20357.000,"cc",28320.844,6.00,6,0.100,18088.000,0.200,915.000,0.300,563.000,0.500,585.000,1.000,206.000,5.000,0
"04/02/08","13:06:01",20354.000,"cc",28343.553,6.00,6,0.100,18090.000,0.200,947.000,0.300,506.000,0.500,583.000,1.000,228.000,5.000,0
"04/02/08","13:06:07",20340.000,"cc",28352.143,6.00,6,0.100,18203.000,0.200,815.000,0.300,510.000,0.500,606.000,1.000,206.000,5.000,0
"04/02/08","13:06:13",20011.000,"cc",28298.426,6.00,6,0.100,17909.000,0.200,858.000,0.300,499.000,0.500,537.000,1.000,208.000,5.000,0
"04/02/08","13:06:19",20580.000,"cc",28340.205,6.00,6,0.100,18459.000,0.200,918.000,0.300,447.000,0.500,573.000,1.000,183.000,5.000,0
"04/02/08","13:06:25",20680.000,"cc",28322.652,6.00,6,0.100,18438.000,0.200,911.000,0.300,500.000,0.500,611.000,1.000,220.000,5.000,0
"04/02/08","13:06:31",20692.000,"cc",28317.266,6.00,6,0.100,18671.000,0.200,864.000,0.300,454.000,0.500,497.000,1.000,206.000,5.000,0
"04/02/08","13:06:37",20239.000,"cc",28317.315,6.00,6,0.100,18258.000,0.200,853.000,0.300,425.000,0.500,503.000,1.000,200.000,5.000,0
"04/02/08","13:06:43",20985.000,"cc",28293.141,6.00,6,0.100,18862.000,0.200,896.000,0.300,485.000,0.500,534.000,1.000,208.000,5.000,0
"04/02/08","13:06:49",21317.000,"cc",28406.607,6.00,6,0.100,19210.000,0.200,920.000,0.300,435.000,0.500,564.000,1.000,188.000,5.000,0
"04/02/08","13:06:55",21320.000,"cc",28283.652,6.00,6,0.100,19236.000,0.200,896.000,0.300,431.000,0.500,562.000,1.000,195.000,5.000,0
"04/02/08","13:07:01",21205.000,"cc",28253.609,6.00,6,0.100,19247.000,0.200,847.000,0.300,426.000,0.500,492.000,1.000,193.000,5.000,0
"04/02/08","13:07:07",21361.000,"cc",28242.938,6.00,6,0.100,19232.000,0.200,928.000,0.300,459.000,0.500,556.000,1.000,186.000,5.000,0
"04/02/08","13:07:13",21358.000,"cc",28300.350,6.00,6,0.100,19226.000,0.200,951.000,0.300,466.000,0.500,525.000,1.000,190.000,5.000,0
"04/02/08","13:07:19",20742.000,"cc",28333.559,6.00,6,0.100,18566.000,0.200,943.000,0.300,493.000,0.500,523.000,1.000,217.000,5.000,0
"04/02/08","13:07:25",21078.000,"cc",28350.926,6.00,6,0.100,18846.000,0.200,910.000,0.300,541.000,0.500,597.000,1.000,184.000,5.000,0
"04/02/08","13:07:31",21327.000,"cc",28307.680,6.00,6,0.100,19207.000,0.200,900.000,0.300,465.000,0.500,540.000,1.000,215.000,5.000,0
"04/02/08","13:07:37",21256.000,"cc",28412.549,6.00,6,0.100,19105.000,0.200,930.000,0.300,434.000,0.500,570.000,1.000,217.000,5.000,0
"04/02/08","13:07:43",21141.000,"cc",28279.555,6.00,6,0.100,18947.000,0.200,923.000,0.300,487.000,0.500,554.000,1.000,230.000,5.000,0
"04/02/08","13:07:49",20969.000,"cc",28319.766,6.00,6,0.100,18820.000,0.200,868.000,0.300,511.000,0.500,553.000,1.000,217.000,5.000,0
"04/02/08","13:07:55",20582.000,"cc",28325.977,6.00,6,0.100,18558.000,0.200,894.000,0.300,422.000,0.500,507.000,1.000,201.000,5.000,0
"04/02/08","13:08:01",20867.000,"cc",28271.215,6.00,6,0.100,18700.000,0.200,913.000,0.300,455.000,0.500,571.000,1.000,228.000,5.000,0
"04/02/08","13:08:07",20621.000,"cc",28327.572,6.00,6,0.100,18356.000,0.200,928.000,0.300,487.000,0.500,615.000,1.000,235.000,5.000,0
"04/02/08","13:08:13",20759.000,"cc",28358.854,6.00,6,0.100,18449.000,0.200,974.000,0.300,482.000,0.500,596.000,1.000,258.000,5.000,0
"04/02/08","13:08:19",20822.000,"cc",28284.857,6.00,6,0.100,18483.000,0.200,970.000,0.300,548.000,0.500,578.000,1.000,243.000,5.000,0
"04/02/08","13:08:25",20647.000,"cc",28307.436,6.00,6,0.100,18333.000,0.200,991.000,0.300,458.000,0.500,625.000,1.000,240.000,5.000,0
"04/02/08","13:08:31",21032.000,"cc",28400.232,6.00,6,0.100,18791.000,0.200,911.000,0.300,513.000,0.500,596.000,1.000,221.000,5.000,0
"04/02/08","13:08:37",20841.000,"cc",28351.459,6.00,6,0.100,18666.000,0.200,963.000,0.300,466.000,0.500,557.000,1.000,189.000,5.000,0
"04/02/08","13:08:43",20654.000,"cc",28235.639,6.00,6,0.100,18379.000,0.200,907.000,0.300,552.000,0.500,576.000,1.000,240.000,5.000,0
"04/02/08","13:08:49",20868.000,"cc",28326.352,6.00,6,0.100,18600.000,0.200,939.000,0.300,496.000,0.500,576.000,1.000,257.000,5.000,0
"04/02/08","13:08:55",20762.000,"cc",28351.342,6.00,6,0.100,18454.000,0.200,972.000,0.300,492.000,0.500,595.000,1.000,249.000,5.000,0
"04/02/08","13:09:01",20988.000,"cc",28300.262,6.00,6,0.100,18653.000,0.200,979.000,0.300,519.000,0.500,598.000,1.000,239.000,5.000,0
"04/02/08","13:09:07",21082.000,"cc",28289.356,6.00,6,0.100,18607.000,0.200,976.000,0.300,552.000,0.500,702.000,1.000,245.000,5.000,0
"04/02/08","13:09:13",21125.000,"cc",28332.559,6.00,6,0.100,18677.000,0.200,982.000,0.300,587.000,0.500,637.000,1.000,242.000,5.000,0
"04/02/08","13:09:19",21345.000,"cc",28207.934,6.00,6,0.100,18814.000,0.200,1020.000,0.300,571.000,0.500,682.000,1.000,258.000,5.000,0
"04/02/08","13:09:25",21585.000,"cc",28297.572,6.00,6,0.100,18955.000,0.200,1064.000,0.300,667.000,0.500,642.000,1.000,257.000,5.000,0
"04/02/08","13:09:31",21263.000,"cc",28351.602,6.00,6,0.100,18934.000,0.200,999.000,0.300,498.000,0.500,637.000,1.000,195.000,5.000,0
"04/02/08","13:09:37",21361.000,"cc",28258.393,6.00,6,0.100,19129.000,0.200,985.000,0.300,483.000,0.500,564.000,1.000,200.000,5.000,0
"04/02/08","13:09:43",21246.000,"cc",28385.254,6.00,6,0.100,18972.000,0.200,946.000,0.300,513.000,0.500,591.000,1.000,224.000,5.000,0
"04/02/08","13:09:49",20971.000,"cc",28311.227,6.00,6,0.100,18722.000,0.200,999.000,0.300,469.000,0.500,584.000,1.000,197.000,5.000,0
"04/02/08","13:09:55",21190.000,"cc",28297.098,6.00,6,0.100,18994.000,0.200,935.000,0.300,509.000,0.500,544.000,1.000,208.000,5.000,0
"04/02/08","13:10:01",21245.000,"cc",28279.832,6.00,6,0.100,18946.000,0.200,983.000,0.300,512.000,0.500,589.000,1.000,215.000,5.000,0
"04/02/08","13:10:07",21344.000,"cc",28368.188,6.00,6,0.100,19034.000,0.200,1012.000,0.300,508.000,0.500,560.000,1.000,230.000,5.000,0
"04/02/08","13:10:13",21461.000,"cc",28262.826,6.00,6,0.100,19177.000,0.200,992.000,0.300,507.000,0.500,552.000,1.000,233.000,5.000,0
"04/02/08","13:10:19",21084.000,"cc",28367.344,6.00,6,0.100,18786.000,0.200,954.000,0.300,527.000,0.500,590.000,1.000,227.000,5.000,0
"04/02/08","13:10:25",21310.000,"cc",28328.652,6.00,6,0.100,19118.000,0.200,941.000,0.300,519.000,0.500,550.000,1.000,182.000,5.000,0
"04/02/08","13:10:31",21381.000,"cc",28282.035,6.00,6,0.100,18978.000,0.200,991.000,0.300,523.000,0.500,662.000,1.000,227.000,5.000,0
"04/02/08","13:10:37",21692.000,"cc",28333.115,6.00,6,0.100,19329.000,0.200,997.000,0.300,551.000,0.500,601.000,1.000,214.000,5.000,0
"04/02/08","13:10:43",21484.000,"cc",28356.836,6.00,6,0.100,19237.000,0.200,952.000,0.300,498.000,0.500,566.000,1.000,231.000,5.000,0
"04/02/08","13:10:49",21538.000,"cc",28268.522,6.00,6,0.100,19299.000,0.200,939.000,0.300,475.000,0.500,604.000,1.000,221.000,5.000,0
"04/02/08","13:10:55",21502.000,"cc",28269.936,6.00,6,0.100,19219.000,0.200,976.000,0.300,491.000,0.500,601.000,1.000,215.000,5.000,0
"04/02/08","13:11:01",21527.000,"cc",28308.779,6.00,6,0.100,19218.000,0.200,987.000,0.300,507.000,0.500,591.000,1.000,224.000,5.000,0
"04/02/08","13:11:07",21733.000,"cc",28373.594,6.00,6,0.100,19461.000,0.200,941.000,0.300,533.000,0.500,577.000,1.000,221.000,5.000,0
"04/02/08","13:11:13",21487.000,"cc",28329.652,6.00,6,0.100,19128.000,0.200,1012.000,0.300,500.000,0.500,626.000,1.000,221.000,5.000,0
"04/02/08","13:11:19",21654.000,"cc",28374.586,6.00,6,0.100,19223.000,0.200,989.000,0.300,560.000,0.500,620.000,1.000,262.000,5.000,0
"04/02/08","13:11:25",21075.000,"cc",28214.106,6.00,6,0.100,18938.000,0.200,895.000,0.300,478.000,0.500,568.000,1.000,196.000,5.000,0
"04/02/08","13:11:31",21670.000,"cc",28337.373,6.00,6,0.100,19458.000,0.200,964.000,0.300,477.000,0.500,560.000,1.000,211.000,5.000,0
"04/02/08","13:11:37",21921.000,"cc",28331.363,6.00,6,0.100,19535.000,0.200,1030.000,0.300,538.000,0.500,594.000,1.000,224.000,5.000,0
"04/02/08","13:11:43",21960.000,"cc",28328.363,6.00,6,0.100,19590.000,0.200,1014.000,0.300,520.000,0.500,587.000,1.000,249.000,5.000,0
"04/02/08","13:11:49",21433.000,"cc",28340.281,6.00,6,0.100,19082.000,0.200,1025.000,0.300,505.000,0.500,603.000,1.000,218.000,5.000,0
"04/02/08","13:11:55",21515.000,"cc",28226.123,6.00,6,0.100,19204.000,0.200,978.000,0.300,524.000,0.500,612.000,1.000,197.000,5.000,0
"04/02/08","13:12:01",21632.000,"cc",28377.393,6.00,6,0.100,19381.000,0.200,980.000,0.300,495.000,0.500,597.000,1.000,179.000,5.000,0
"04/02/08","13:12:07",21548.000,"cc",28319.859,6.00,6,0.100,19210.000,0.200,982.000,0.300,539.000,0.500,593.000,1.000,224.000,5.000,0
"04/02/08","13:12:13",21093.000,"cc",28283.367,6.00,6,0.100,18876.000,0.200,965.000,0.300,486.000,0.500,544.000,1.000,222.000,5.000,0
"04/02/08","13:12:19",21558.000,"cc",28332.152,6.00,6,0.100,19345.000,0.200,959.000,0.300,478.000,0.500,564.000,1.000,212.000,5.000,0
"04/02/08","13:12:25",21385.000,"cc",28337.232,6.00,6,0.100,19147.000,0.200,984.000,0.300,492.000,0.500,566.000,1.000,196.000,5.000,0
"04/02/08","13:12:31",21269.000,"cc",28304.049,6.00,6,0.100,19037.000,0.200,964.000,0.300,486.000,0.500,560.000,1.000,222.000,5.000,0
"04/02/08","13:12:37",21350.000,"cc",28307.486,6.00,6,0.100,18989.000,0.200,981.000,0.300,517.000,0.500,651.000,1.000,212.000,5.000,0
"04/02/08","13:12:43",21285.000,"cc",28327.154,6.00,6,0.100,18926.000,0.200,991.000,0.300,514.000,0.500,639.000,1.000,215.000,5.000,0
"04/02/08","13:12:49",21423.000,"cc",28269.918,6.00,6,0.100,18885.000,0.200,1041.000,0.300,591.000,0.500,637.000,1.000,269.000,5.000,0
"04/02/08","13:12:55",21503.000,"cc",28282.676,6.00,6,0.100,18878.000,0.200,1101.000,0.300,566.000,0.500,711.000,1.000,247.000,5.000,0
"04/02/08","13:13:01",21363.000,"cc",28362.027,6.00,6,0.100,18939.000,0.200,1027.000,0.300,533.000,0.500,606.000,1.000,258.000,5.000,0
"04/02/08","13:13:07",20751.000,"cc",28409.613,6.00,6,0.100,18621.000,0.200,919.000,0.300,516.000,0.500,509.000,1.000,186.000,5.000,0
"04/02/08","13:13:13",20589.000,"cc",28297.299,6.00,6,0.100,18486.000,0.200,891.000,0.300,500.000,0.500,533.000,1.000,179.000,5.000,0
"04/02/08","13:13:19",20782.000,"cc",28338.092,6.00,6,0.100,18540.000,0.200,990.000,0.300,488.000,0.500,529.000,1.000,235.000,5.000,0
"04/02/08","13:13:25",20681.000,"cc",28331.869,6.00,6,0.100,18440.000,0.200,952.000,0.300,490.000,0.500,593.000,1.000,206.000,5.000,0
"04/02/08","13:13:31",20850.000,"cc",28303.492,6.00,6,0.100,18580.000,0.200,988.000,0.300,487.000,0.500,569.000,1.000,226.000,5.000,0
"04/02/08","13:13:37",20487.000,"cc",28289.629,6.00,6,0.100,18302.000,0.200,938.000,0.300,492.000,0.500,568.000,1.000,187.000,5.000,0
"04/02/08","13:13:43",20573.000,"cc",28297.340,6.00,6,0.100,18466.000,0.200,936.000,0.300,471.000,0.500,516.000,1.000,184.000,5.000,0
"04/02/08","13:13:49",21002.000,"cc",28374.656,6.00,6,0.100,18690.000,0.200,1002.000,0.300,552.000,0.500,556.000,1.000,202.000,5.000,0
"04/02/08","13:13:55",20758.000,"cc",28335.590,6.00,6,0.100,18465.000,0.200,960.000,0.300,516.000,0.500,582.000,1.000,235.000,5.000,0
"04/02/08","13:14:01",21244.000,"cc",28315.106,6.00,6,0.100,19047.000,0.200,965.000,0.300,482.000,0.500,548.000,1.000,202.000,5.000,0
"04/02/08","13:14:07",20731.000,"cc",28269.559,6.00,6,0.100,18811.000,0.200,868.000,0.300,394.000,0.500,500.000,1.000,158.000,5.000,0
"04/02/08","13:14:13",20550.000,"cc",28367.438,6.00,6,0.100,18612.000,0.200,895.000,0.300,401.000,0.500,469.000,1.000,173.000,5.000,0
"04/02/08","13:14:19",20292.000,"cc",28306.686,6.00,6,0.100,18216.000,0.200,899.000,0.300,419.000,0.500,562.000,1.000,196.000,5.000,0
"04/02/08","13:14:25",20389.000,"cc",28273.475,6.00,6,0.100,18176.000,0.200,963.000,0.300,488.000,0.500,562.000,1.000,200.000,5.000,0
"04/02/08","13:14:31",20508.000,"cc",28307.174,6.00,6,0.100,18236.000,0.200,937.000,0.300,522.000,0.500,568.000,1.000,245.000,5.000,0
"04/02/08","13:14:37",20441.000,"cc",28328.793,6.00,6,0.100,18204.000,0.200,986.000,0.300,496.000,0.500,545.000,1.000,210.000,5.000,0
"04/02/08","13:14:43",19532.000,"cc",28223.727,6.00,6,0.100,17473.000,0.200,900.000,0.300,436.000,0.500,535.000,1.000,188.000,5.000,0
"04/02/08","13:14:49",19791.000,"cc",28332.193,6.00,6,0.100,17615.000,0.200,905.000,0.300,476.000,0.500,577.000,1.000,218.000,5.000,0
"04/02/08","13:14:55",19650.000,"cc",28477.947,6.00,6,0.100,17438.000,0.200,979.000,0.300,479.000,0.500,571.000,1.000,183.000,5.000,0
"04/02/08","13:15:01",19623.000,"cc",28363.354,6.00,6,0.100,17498.000,0.200,949.000,0.300,449.000,0.500,546.000,1.000,181.000,5.000,0
"04/02/08","13:15:07",20094.000,"cc",28286.459,6.00,6,0.100,17947.000,0.200,916.000,0.300,506.000,0.500,525.000,1.000,200.000,5.000,0
"04/02/08","13:15:13",20075.000,"cc",28299.068,6.00,6,0.100,18013.000,0.200,928.000,0.300,439.000,0.500,498.000,1.000,197.000,5.000,0
"04/02/08","13:15:19",20459.000,"cc",28305.895,6.00,6,0.100,18243.000,0.200,943.000,0.300,500.000,0.500,573.000,1.000,200.000,5.000,0
"04/02/08","13:15:25",20093.000,"cc",28227.094,6.00,6,0.100,17828.000,0.200,958.000,0.300,509.000,0.500,578.000,1.000,220.000,5.000,0
"04/02/08","13:15:31",20229.000,"cc",28298.686,6.00,6,0.100,17951.000,0.200,987.000,0.300,503.000,0.500,581.000,1.000,207.000,5.000,0
"04/02/08","13:15:37",20454.000,"cc",28389.857,6.00,6,0.100,18173.000,0.200,973.000,0.300,488.000,0.500,597.000,1.000,223.000,5.000,0
"04/02/08","13:15:43",20395.000,"cc",28250.502,6.00,6,0.100,17992.000,0.200,1018.000,0.300,520.000,0.500,635.000,1.000,230.000,5.000,0
"04/02/08","13:15:49",20363.000,"cc",28397.400,6.00,6,0.100,18324.000,0.200,942.000,0.300,429.000,0.500,493.000,1.000,175.000,5.000,0
"04/02/08","13:15:55",20371.000,"cc",28299.834,6.00,6,0.100,18403.000,0.200,859.000,0.300,426.000,0.500,515.000,1.000,168.000,5.000,0
"04/02/08","13:16:01",20741.000,"cc",28326.635,6.00,6,0.100,18617.000,0.200,935.000,0.300,456.000,0.500,533.000,1.000,200.000,5.000,0
"04/02/08","13:16:07",20264.000,"cc",28276.863,6.00,6,0.100,18211.000,0.200,891.000,0.300,437.000,0.500,552.000,1.000,173.000,5.000,0
"04/02/08","13:16:13",20082.000,"cc",28342.361,6.00,6,0.100,18168.000,0.200,857.000,0.300,426.000,0.500,476.000,1.000,155.000,5.000,0
"04/02/08","13:16:19",20090.000,"cc",28294.117,6.00,6,0.100,17934.000,0.200,976.000,0.300,488.000,0.500,485.000,1.000,207.000,5.000,0
"04/02/08","13:16:25",20617.000,"cc",28281.305,6.00,6,0.100,18399.000,0.200,972.000,0.300,511.000,0.500,542.000,1.000,193.000,5.000,0
"04/02/08","13:16:31",20476.000,"cc",28375.156,6.00,6,0.100,18380.000,0.200,922.000,0.300,453.000,0.500,517.000,1.000,204.000,5.000,0
"04/02/08","13:16:37",20249.000,"cc",28304.531,6.00,6,0.100,18268.000,0.200,897.000,0.300,407.000,0.500,500.000,1.000,177.000,5.000,0
"04/02/08","13:16:43",19703.000,"cc",28362.949,6.00,6,0.100,17772.000,0.200,863.000,0.300,417.000,0.500,473.000,1.000,178.000,5.000,0